FW0646 Pawleys Island SC US current weather conditions

sailwx.info

Wind from 182 at 2 knots

Air temperature 17.8° C
Dewpoint 17.3° C

Last reported at 2019-Dec-11 02:01 UTC.
Time now 2019-Dec-11 03:07 UTC

Location: N 33°29' W 079°05'.
View on Google Maps.

See reports from other nearby stations

  
Tides and Currents Weather Stations Pressure Air Temp Water Temp Dewpoint Dewpoint Depression Visibility Wind Speed Wind Dir Waves Ship Positions
date/time (UTC)wind fromknots sea level pressurealtimeterstation pressurevisibilityair tempwater tempwave heightnotes
2019-Dec-11 02:01 182 2 17.8
2019-Dec-11 01:52 180 2 17.8
2019-Dec-11 01:42 183 1 17.8
2019-Dec-11 01:23 183 1 18.3
2019-Dec-11 01:14 182 3 18.9
2019-Dec-11 01:04 194 2 18.9
2019-Dec-11 00:54 181 2 18.9
2019-Dec-11 00:45 183 2 18.9
2019-Dec-11 00:35 180 0 18.9
2019-Dec-11 00:25 189 2 18.3
2019-Dec-11 00:16 184 2 17.8
2019-Dec-11 00:06 191 1 17.8
2019-Dec-10 23:56 188 2 17.8
2019-Dec-10 23:47 185 4 17.2
2019-Dec-10 23:28 190 3 17.2
2019-Dec-10 23:18 194 4 17.2
2019-Dec-10 23:08 187 4 17.2
2019-Dec-10 22:58 183 5 17.8
2019-Dec-10 22:48 185 3 17.2
2019-Dec-10 22:39 186 4 17.8
2019-Dec-10 22:20 185 5 17.8
2019-Dec-10 22:10 185 4 17.8
2019-Dec-10 21:51 189 6 17.8
2019-Dec-10 21:41 185 4 18.3
2019-Dec-10 21:31 181 5 18.3
2019-Dec-10 21:12 181 6 18.9
2019-Dec-10 21:03 186 4 18.9
2019-Dec-10 20:54 182 5 18.3
2019-Dec-10 20:45 185 5 18.3
2019-Dec-10 20:35 186 3 18.9
2019-Dec-10 20:25 182 5 18.9
2019-Dec-10 20:16 194 5 18.9
2019-Dec-10 20:07 187 5 18.9
2019-Dec-10 19:57 185 6 18.9
2019-Dec-10 19:48 189 6 18.9
2019-Dec-10 19:39 188 5 19.4
2019-Dec-10 19:29 190 5 19.4
2019-Dec-10 19:19 185 4 18.9
2019-Dec-10 19:09 190 3 18.9
2019-Dec-10 18:59 186 5 19.4
2019-Dec-10 18:49 196 5 20.6
2019-Dec-10 18:39 191 5 20.6
2019-Dec-10 18:30 195 5 20.0
2019-Dec-10 18:20 191 3 19.4
2019-Dec-10 18:11 187 4 18.9
2019-Dec-10 18:01 190 6 18.9
2019-Dec-10 17:52 192 4 18.9
2019-Dec-10 17:43 181 5 19.4
2019-Dec-10 17:33 180 5 18.9
2019-Dec-10 17:24 180 5 18.3
2019-Dec-10 17:14 180 6 18.9
2019-Dec-10 17:04 181 4 21.1
2019-Dec-10 16:44 206 0 24.4
2019-Dec-10 16:35 187 0 24.4
2019-Dec-10 16:25 180 1 24.4
2019-Dec-10 16:16 193 1 24.4
2019-Dec-10 16:06 191 2 23.9
2019-Dec-10 15:57 188 1 23.9
2019-Dec-10 15:47 194 2 23.3
2019-Dec-10 15:38 203 2 23.3
2019-Dec-10 15:28 196 3 23.3
2019-Dec-10 15:18 194 22.8
2019-Dec-10 15:09 180 0 22.8
2019-Dec-10 15:00 186 0 21.7
2019-Dec-10 14:50 198 0 20.6
2019-Dec-10 14:41 192 20.6
2019-Dec-10 14:31 180 1 19.4
2019-Dec-10 14:21 182 1 18.3
2019-Dec-10 14:11 180 1 17.8
2019-Dec-10 14:01 180 1 17.8
2019-Dec-10 13:51 211 1 17.2
2019-Dec-10 13:42 180 2 16.7
2019-Dec-10 13:32 180 2 16.7
2019-Dec-10 13:22 181 2 16.1
2019-Dec-10 13:12 190 2 16.1
2019-Dec-10 13:03 188 2 16.7
2019-Dec-10 12:53 181 1 16.1
2019-Dec-10 12:44 187 3 16.1
2019-Dec-10 12:35 181 1 16.1
2019-Dec-10 12:25 180 1 16.1
2019-Dec-10 12:15 180 1 16.1
2019-Dec-10 12:05 180 2 16.7
2019-Dec-10 11:55 191 2 16.7
2019-Dec-10 11:45 183 3 16.7
2019-Dec-10 11:36 184 2 16.7
2019-Dec-10 11:26 183 2 16.7
2019-Dec-10 11:07 180 3 16.7
2019-Dec-10 10:58 180 1 16.7
2019-Dec-10 10:48 180 1 16.7
2019-Dec-10 10:38 180 1 17.2
2019-Dec-10 10:28 180 1 17.2
2019-Dec-10 10:18 182 1 17.2
2019-Dec-10 10:09 180 2 17.2
2019-Dec-10 10:00 180 1 17.2
2019-Dec-10 09:50 180 2 17.2
2019-Dec-10 09:41 180 2 17.2
2019-Dec-10 09:32 194 1 17.2
2019-Dec-10 09:23 190 1 17.2
2019-Dec-10 09:13 196 2 17.2
2019-Dec-10 09:04 183 2 17.2
2019-Dec-10 08:54 185 1 17.2
2019-Dec-10 08:45 185 4 17.2
2019-Dec-10 08:35 185 3 17.2
2019-Dec-10 08:25 182 3 17.2
2019-Dec-10 08:15 180 4 17.2
2019-Dec-10 08:05 186 2 17.8
2019-Dec-10 07:56 181 2 17.8
2019-Dec-10 07:46 185 2 17.8
2019-Dec-10 07:36 196 2 17.8
2019-Dec-10 07:26 194 3 17.8
2019-Dec-10 07:17 196 4 17.8
2019-Dec-10 07:07 180 4 17.8
2019-Dec-10 06:57 183 3 17.8
2019-Dec-10 06:47 182 3 18.3
2019-Dec-10 06:37 184 2 18.3
2019-Dec-10 06:28 193 2 18.9
2019-Dec-10 06:18 181 3 18.9
2019-Dec-10 06:08 186 2 18.9
2019-Dec-10 05:58 190 2 18.9
2019-Dec-10 05:48 181 3 19.4
2019-Dec-10 05:38 182 3 19.4
2019-Dec-10 05:29 188 2 19.4
2019-Dec-10 05:20 191 3 19.4
2019-Dec-10 05:10 189 4 18.9
2019-Dec-10 05:01 189 2 18.9
2019-Dec-10 04:52 185 4 18.9
2019-Dec-10 04:43 183 4 18.9
2019-Dec-10 04:33 185 3 19.4
2019-Dec-10 04:24 194 3 18.9
2019-Dec-10 04:15 194 3 18.9
2019-Dec-10 04:05 187 4 18.3
2019-Dec-10 03:55 181 2 17.8
2019-Dec-10 03:45 188 4 17.8
2019-Dec-10 03:36 181 3 17.8
2019-Dec-10 03:27 188 2 18.3
2019-Dec-10 03:17 180 2 17.8
2019-Dec-10 03:08 190 1 17.8
2019-Dec-10 02:58 180 1 17.2
2019-Dec-10 02:49 180 1 17.2
2019-Dec-10 02:39 180 2 17.2
2019-Dec-10 02:29 187 1 16.7
2019-Dec-10 02:20 184 3 16.1
2019-Dec-10 02:10 180 2 15.6
2019-Dec-10 02:00 180 1 15.6
2019-Dec-10 01:51 180 1 15.6
2019-Dec-10 01:42 202 0 16.1
2019-Dec-10 01:33 180 2 16.1
2019-Dec-10 01:23 180 3 16.1
2019-Dec-10 01:14 180 1 16.1
2019-Dec-10 01:04 180 3 16.1
2019-Dec-10 00:54 180 2 16.7
2019-Dec-10 00:44 180 1 16.7
2019-Dec-10 00:34 180 2 16.7
2019-Dec-10 00:25 202 0 16.7
2019-Dec-10 00:16 191 0 16.7
2019-Dec-10 00:07 191 1 16.1
2019-Dec-09 23:57 202 0 15.6
2019-Dec-09 23:47 180 15.6
2019-Dec-09 23:37 202 15.6
2019-Dec-09 23:28 202 15.0
2019-Dec-09 23:19 180 1 15.0
2019-Dec-09 23:09 180 2 15.0
2019-Dec-09 22:59 180 2 15.0
2019-Dec-09 22:50 180 1 14.4
2019-Dec-09 22:40 180 13.9
2019-Dec-09 22:31 180 13.9
2019-Dec-09 22:22 180 13.9
2019-Dec-09 22:12 180 13.9
2019-Dec-09 22:02 180 13.9
2019-Dec-09 21:53 180 1 13.3
2019-Dec-09 21:43 180 1 13.3
2019-Dec-09 21:33 180 13.3
2019-Dec-09 21:23 180 1 13.3
2019-Dec-09 21:13 180 0 13.3
2019-Dec-09 21:04 180 1 13.3
2019-Dec-09 20:54 180 13.9
2019-Dec-09 20:44 180 1 13.9
2019-Dec-09 20:35 180 13.9
2019-Dec-09 20:25 180 1 13.9
2019-Dec-09 20:15 180 2 13.9
2019-Dec-09 20:05 180 2 14.4
2019-Dec-09 19:55 180 14.4
2019-Dec-09 19:46 180 14.4
2019-Dec-09 19:37 180 14.4
2019-Dec-09 19:27 180 14.4
2019-Dec-09 19:18 180 1 14.4
2019-Dec-09 19:08 180 2 14.4
2019-Dec-09 18:58 180 15.0
2019-Dec-09 18:48 180 15.0
2019-Dec-09 18:39 180 14.4
2019-Dec-09 18:29 180 13.9
2019-Dec-09 18:20 180 0 13.9
2019-Dec-09 18:10 180 13.9
2019-Dec-09 18:01 180 13.9
2019-Dec-09 17:51 180 13.9
2019-Dec-09 17:23 180 13.9
2019-Dec-09 17:13 180 1 13.9
2019-Dec-09 17:04 180 0 13.3
2019-Dec-09 16:54 180 1 13.3
2019-Dec-09 16:44 180 1 13.3
2019-Dec-09 16:34 180 13.3
2019-Dec-09 16:24 180 13.3
2019-Dec-09 16:15 180 0 13.3
2019-Dec-09 16:05 180 12.8
2019-Dec-09 15:56 180 1 13.3
2019-Dec-09 15:46 180 13.3
2019-Dec-09 15:37 180 12.8
2019-Dec-09 15:27 180 12.8
2019-Dec-09 15:18 180 12.8
2019-Dec-09 15:08 180 12.8
2019-Dec-09 14:59 180 12.2
2019-Dec-09 14:50 180 0 12.2
2019-Dec-09 14:41 180 12.2
2019-Dec-09 14:31 180 11.7
2019-Dec-09 14:21 180 12.2
2019-Dec-09 14:12 180 12.2
2019-Dec-09 14:02 180 12.2
2019-Dec-09 13:52 180 11.7
2019-Dec-09 13:42 180 1 11.7
2019-Dec-09 13:33 180 0 11.7
2019-Dec-09 13:23 180 2 11.7
2019-Dec-09 13:13 180 3 11.1
2019-Dec-09 13:03 180 2 11.1
2019-Dec-09 12:53 180 11.1
2019-Dec-09 12:44 180 11.1
2019-Dec-09 12:34 180 1 11.1
2019-Dec-09 12:24 180 10.6
2019-Dec-09 12:15 180 10.6
2019-Dec-09 12:05 180 10.6
2019-Dec-09 11:56 180 10.6
2019-Dec-09 11:46 180 10.6
2019-Dec-09 11:36 180 10.6
2019-Dec-09 11:26 180 10.6
2019-Dec-09 11:17 180 10.6
2019-Dec-09 11:08 180 0 10.0
2019-Dec-09 10:58 180 0 10.0
2019-Dec-09 10:48 180 10.0
2019-Dec-09 10:39 180 10.0
2019-Dec-09 10:29 180 1 10.0
2019-Dec-09 10:19 180 10.0
2019-Dec-09 10:09 180 10.0
2019-Dec-09 10:00 180 9.4
2019-Dec-09 09:51 180 10.0
2019-Dec-09 09:41 180 10.0
2019-Dec-09 09:32 180 10.0
2019-Dec-09 09:23 180 10.0
2019-Dec-09 09:14 180 10.0
2019-Dec-09 09:04 180 10.6
2019-Dec-09 08:54 180 10.0
2019-Dec-09 08:45 180 10.6
2019-Dec-09 08:36 180 10.0
2019-Dec-09 08:26 180 10.6
2019-Dec-09 08:17 180 10.6
2019-Dec-09 08:07 180 10.6
2019-Dec-09 07:57 180 10.6
2019-Dec-09 07:48 180 10.6
2019-Dec-09 07:38 180 10.6
2019-Dec-09 07:28 180 10.6
2019-Dec-09 07:18 180 10.6
2019-Dec-09 07:09 180 10.6
2019-Dec-09 07:00 180 10.6
2019-Dec-09 06:51 180 10.6
2019-Dec-09 06:41 180 10.0
2019-Dec-09 06:31 180 10.6
2019-Dec-09 06:22 180 10.6
2019-Dec-09 06:12 180 10.6
2019-Dec-09 06:03 180 10.6
2019-Dec-09 05:53 180 10.6
2019-Dec-09 05:43 180 10.6
2019-Dec-09 05:33 180 10.6
2019-Dec-09 05:24 180 10.6
2019-Dec-09 05:14 180 10.0
2019-Dec-09 05:04 180 10.0
2019-Dec-09 04:54 180 10.6
2019-Dec-09 04:45 180 10.6
2019-Dec-09 04:35 180 10.6
2019-Dec-09 04:26 180 10.6
2019-Dec-09 04:16 180 10.0
2019-Dec-09 04:07 180 10.6
2019-Dec-09 03:58 180 10.6
2019-Dec-09 03:48 180 10.6
2019-Dec-09 03:39 180 10.6
2019-Dec-09 03:29 180 10.6
2019-Dec-09 03:20 180 10.6
2019-Dec-09 03:10 180 10.6
2019-Dec-09 03:01 180 10.6